Kiana, AK

11:46 AM AKST on January 18, 2017 (GMT -0900)
Baker Memorial

Weather History for PAIK - October, 2012

Change the Weather History Date:

Sunday, October 28, 2012

  Actual Average (PASK) Record (PASK)
Temperature  
Mean Temperature 22 °F -  
Max Temperature 28 °F 17 °F 39 °F (1996)
Min Temperature 15 °F 10 °F -11 °F (2001)
Degree Days  
Heating Degree Days 44    
Moisture  
Dew Point 21 °F    
Average Humidity 94    
Maximum Humidity 96    
Minimum Humidity 91    
Precipitation  
Precipitation 0.00 in - - ()
Sea Level Pressure  
Sea Level Pressure 30.37 in    
Wind  
Wind Speed 4 mph (WNW)    
Max Wind Speed 9 mph    
Max Gust Speed -    
Visibility 8 miles    
Events Snow    
Averages and records for this station are not official NWS values.
T = Trace of Precipitation, MM = Missing Value Source: NWS Daily Summary

Daily Weather History Graph

Daily Weather History Graph

Search for Another Location

Airport or City:

Trip Planner

Search our weather history database for the weather conditions in past years. The results will help you decide how hot, cold, wet, or windy it might be!

Date:

Astronomy

Oct. 28, 2012 Rise Set
Actual Time 10:31 AM AKDT 6:17 PM AKDT
Civil Twilight 9:32 AM AKDT 7:17 PM AKDT
Nautical Twilight 8:28 AM AKDT 8:20 PM AKDT
Astronomical Twilight 7:27 AM AKDT 9:21 PM AKDT
Moon 5:39 PM AKDT (10/28) 9:31 AM AKDT (10/28)
Length of Visible Light 9h 45m
Length of Day
7h 45m
Waxing Gibbous, 99% of the Moon is Illuminated
Oct 28
Waxing Gibbous
Oct 29
Full
Nov 6
Last Quarter
Nov 13
New
Nov 20
First Quarter

Hourly Weather History & Observations

Time (AKDT) Temp. Windchill Dew Point Humidity Pressure Visibility Wind Dir Wind Speed Gust Speed Precip Events Conditions
12:01 AM 15.1 °F 6.4 °F 12.9 °F 91% 30.41 in 10.0 mi NW 5.8 mph - N/A   Clear
1:01 AM 16.0 °F 8.8 °F 14.0 °F 92% 30.42 in 10.0 mi North 4.6 mph - N/A   Clear
2:01 AM 16.0 °F 8.8 °F 15.1 °F 96% 30.42 in 10.0 mi NE 4.6 mph - N/A   Clear
3:01 AM 16.0 °F - 15.1 °F 96% 30.42 in 10.0 mi Calm Calm - N/A   Clear
4:01 AM 16.0 °F 8.8 °F 14.0 °F 92% 30.43 in 10.0 mi North 4.6 mph - N/A   Clear
5:01 AM 18.0 °F 9.8 °F 17.1 °F 96% 30.43 in 10.0 mi NE 5.8 mph - N/A   Clear
6:01 AM 19.9 °F - 18.0 °F 92% 30.44 in 10.0 mi Calm Calm - N/A   Overcast
7:01 AM 17.1 °F - 15.1 °F 92% 30.44 in 10.0 mi Calm Calm - N/A   Overcast
8:01 AM 19.0 °F 10.0 °F 18.0 °F 96% 30.43 in 10.0 mi NE 6.9 mph - N/A   Clear
9:01 AM 19.0 °F - 17.1 °F 92% 30.44 in 10.0 mi Calm Calm - N/A   Partly Cloudy
10:01 AM 18.0 °F 12.7 °F 16.0 °F 92% 30.44 in 10.0 mi North 3.5 mph - N/A   Clear
11:01 AM 19.0 °F 13.9 °F 18.0 °F 96% 30.44 in 10.0 mi NW 3.5 mph - N/A   Mostly Cloudy
12:01 PM 19.9 °F - 18.0 °F 92% 30.43 in 10.0 mi Calm Calm - N/A   Partly Cloudy
1:01 PM 23.0 °F - 21.9 °F 96% 30.42 in 10.0 mi Calm Calm - N/A   Clear
2:01 PM 27.0 °F 19.5 °F 26.1 °F 96% 30.40 in 6.0 mi NNW 6.9 mph - N/A   Partly Cloudy
3:01 PM 26.1 °F - 25.0 °F 96% 30.41 in 10.0 mi Calm Calm - N/A   Overcast
4:01 PM 26.1 °F 19.4 °F 25.0 °F 96% 30.40 in 10.0 mi SSW 5.8 mph - N/A   Overcast
5:01 PM 27.0 °F - 25.0 °F 92% 30.38 in 10.0 mi Calm Calm - N/A   Overcast
6:01 PM 27.0 °F - 25.0 °F 92% 30.36 in 10.0 mi Calm Calm - N/A   Overcast
7:01 PM 26.1 °F - 25.0 °F 96% 30.35 in 10.0 mi Calm Calm - N/A   Mostly Cloudy
8:01 PM 26.1 °F - 24.1 °F 92% 30.33 in 10.0 mi Calm Calm - N/A   Mostly Cloudy
9:01 PM 25.0 °F 20.7 °F 24.1 °F 96% 30.32 in 10.0 mi SSW 3.5 mph - N/A   Overcast
10:01 PM 28.4 °F 19.7 °F 26.6 °F 93% 30.17 in 3.0 mi WSW 9.2 mph - N/A Snow Light Snow
10:18 PM 28.0 °F 20.8 °F 26.1 °F 92% 30.30 in 3.0 mi South 6.9 mph - N/A Snow Light Snow
10:39 PM 26.6 °F 20.0 °F 24.8 °F 93% 30.16 in 2.5 mi SSW 5.8 mph - N/A Snow Light Snow
10:46 PM 26.6 °F 21.2 °F 24.8 °F 93% 30.16 in 3.0 mi SSW 4.6 mph - N/A Snow Light Snow
11:01 PM 26.1 °F 20.5 °F 25.0 °F 96% 30.29 in 3.0 mi SW 4.6 mph - N/A Snow Light Snow